Location: Waco, TX
(31.5480°N, 97.1670°W)
Time: 13:50:31

ISS - Pass Details

Date: 22 March 2018
Orbit: 403 x 406 km, 51.6° (Epoch: 23 March)

Event Time Altitude Azimuth Distance (km) Brightness Sun altitude
Rises 21:32:05 0° 237° (WSW) 2,310 0.6 -24.0°
Reaches altitude 10° 21:34:13 10° 243° (WSW) 1,454 -0.5 -24.4°
Enters shadow 21:36:14 31° 267° (W) 741 -2.0 -24.8°
Maximum altitude 21:37:21 45° 318° (NW) 565 - -25.1°
Drops below altitude 10° 21:40:31 10° 32° (NNE) 1,462 - -25.7°
Sets 21:42:39 0° 39° (NE) 2,324 - -26.1°
